Location: Boiro
(42.6475°N, 8.8834°W)
Time: 00:16:22
(UTC+01:00)

S-56A Canister/Altair - Pass Details

Date: 02 December 2021
Orbit: 634 x 2499 km, 38.9° (Epoch: 26 January)

Event Time Altitude Azimuth Distance (km) Brightness Sun altitude
Exits shadow 07:29:33 14° 249° (WSW) 1,900 9.1 -13.9°
Maximum altitude 07:32:06 20° 211° (SSW) 1,492 8.9 -13.4°
Drops below altitude 10° 07:35:22 10° 163° (SSE) 2,003 10.2 -12.9°
Sets 07:38:08 0° 145° (SE) 2,935 11.5 -12.4°
